Weather History for Atlantic City, NJ

Change the Weather History Date:

Saturday, March 9, 2013

  Actual Average Record
Temperature  
Mean Temperature 42 °F 40 °F  
Max Temperature 58 °F 50 °F 78 °F (2000)
Min Temperature 26 °F 31 °F 10 °F (1984)
Degree Days  
Heating Degree Days 23 25  
Month to date heating degree days 250 233  
Since 1 July heating degree days 3668 3824  
Cooling Degree Days 0 0  
Month to date cooling degree days 0 0  
Year to date cooling degree days 0 0  
Moisture  
Dew Point 23 °F    
Average Humidity 47    
Maximum Humidity 75    
Minimum Humidity 19    
Precipitation  
Precipitation 0.00 in 0.14 in 1.18 in (1893)
Month to date precipitation 1.00 1.16  
Year to date precipitation 8.46 7.25  
Snow  
Snow 0.00 in 0.10 in 3.20 in (1976)
Month to date snowfall 0.9 0.7  
Since 1 July snowfall 12.3 15.8  
Snow Depth 0.00 in    
Sea Level Pressure  
Sea Level Pressure 30.25 in    
Wind  
Wind Speed 9 mph (North)    
Max Wind Speed 18 mph    
Max Gust Speed 23 mph    
Visibility 10 miles    
Events      
T = Trace of Precipitation, MM = Missing Value Source: NWS Daily Summary

Daily Weather History Graph

Daily Weather History Graph

Search for Another Location

Airport:

Trip Planner

Search our weather history database for the weather conditions in past years. The results will help you decide how hot, cold, wet, or windy it might be!

Date:

Astronomy

Mar. 09, 2013 Rise Set
Actual Time 6:18 AM EST 5:59 PM EST
Civil Twilight 5:51 AM EST 6:26 PM EST
Nautical Twilight 5:20 AM EST 6:57 PM EST
Astronomical Twilight 4:49 AM EST 7:28 PM EST
Moon 4:40 AM EST (3/9) 3:58 PM EST (3/9)
Length of Visible Light 12h 34m
Length of Day
11h 40m
Waning Crescent, 5% of the Moon is Illuminated
Mar 9
Waning Crescent
Mar 11
New
Mar 19
First Quarter
Mar 27
Full
Apr 3
Last Quarter

Hourly Weather History & Observations

Time (EST) Temp. Windchill Dew Point Humidity Pressure Visibility Wind Dir Wind Speed Gust Speed Precip Events Conditions
12:54 AM 36.0 °F 28.0 °F 27.0 °F 70% 30.18 in 10.0 mi NNW 11.5 mph - N/A   Clear
1:54 AM 35.1 °F 25.9 °F 26.1 °F 70% 30.18 in 10.0 mi NNW 13.8 mph - N/A   Clear
2:54 AM 34.0 °F 25.0 °F 25.0 °F 70% 30.18 in 10.0 mi NNW 12.7 mph - N/A   Clear
3:54 AM 33.1 °F 24.4 °F 24.1 °F 70% 30.18 in 10.0 mi NNW 11.5 mph - N/A   Clear
4:54 AM 32.0 °F 23.0 °F 23.0 °F 69% 30.21 in 10.0 mi NNW 11.5 mph - N/A   Clear
5:54 AM 32.0 °F 22.5 °F 21.9 °F 66% 30.23 in 10.0 mi NNW 12.7 mph - N/A   Clear
6:54 AM 32.0 °F 23.0 °F 21.9 °F 66% 30.25 in 10.0 mi NNW 11.5 mph - N/A   Clear
7:54 AM 36.0 °F 27.1 °F 23.0 °F 59% 30.25 in 10.0 mi NNW 13.8 mph - N/A   Clear
8:54 AM 41.0 °F 33.1 °F 24.1 °F 51% 30.26 in 10.0 mi North 15.0 mph 23.0 mph N/A   Clear
9:54 AM 46.0 °F 39.3 °F 24.1 °F 42% 30.26 in 10.0 mi North 16.1 mph - N/A   Clear
10:54 AM 50.0 °F - 21.9 °F 33% 30.27 in 10.0 mi NNW 15.0 mph - N/A   Clear
11:54 AM 52.0 °F - 19.9 °F 28% 30.27 in 10.0 mi NNE 11.5 mph 23.0 mph N/A   Clear
12:54 PM 55.0 °F - 19.9 °F 25% 30.25 in 10.0 mi North 11.5 mph 17.3 mph N/A   Clear
1:54 PM 55.9 °F - 17.1 °F 22% 30.22 in 10.0 mi North 12.7 mph - N/A   Clear
2:54 PM 57.9 °F - 17.1 °F 20% 30.22 in 10.0 mi North 10.4 mph - N/A   Clear
3:54 PM 57.9 °F - 16.0 °F 19% 30.23 in 10.0 mi North 9.2 mph 21.9 mph N/A   Clear
4:54 PM 52.0 °F - 27.0 °F 38% 30.25 in 10.0 mi East 3.5 mph - N/A   Clear
5:54 PM 46.9 °F - 26.1 °F 44% 30.27 in 10.0 mi SSE 4.6 mph - N/A   Clear
6:54 PM 43.0 °F 40.3 °F 26.1 °F 51% 30.28 in 10.0 mi SSE 4.6 mph - N/A   Clear
7:54 PM 34.0 °F - 24.1 °F 67% 30.28 in 10.0 mi Calm Calm - N/A   Clear
8:54 PM 35.1 °F - 26.1 °F 70% 30.30 in 10.0 mi Calm Calm - N/A   Clear
9:54 PM 30.9 °F - 23.0 °F 72% 30.30 in 10.0 mi Calm Calm - N/A   Clear
10:54 PM 28.9 °F - 21.9 °F 75% 30.32 in 10.0 mi Calm Calm - N/A   Clear
11:54 PM 28.0 °F - 21.9 °F 78% 30.32 in 10.0 mi Calm Calm - N/A   Clear